Flag for Belarus Weather past 2 weeks in Minsk, Belarus

Now
70 °F

Partly sunny.


Feels Like: 70 °F
Forecast: 51 / 68 °F
Wind: 15 mph from West

Location: Loshitsa / Minsk International 1

Current Time: Jul 30, 2015 at 5:17:51 PM

Latest Report: Jul 30, 2015 at 5:00 PM


Visibility: N/A

Pressure: 29.77 "Hg

Humidity: 38%

Dew point: 43 °F

Location of MinskLocation

Historic Weather in Minsk — Graph

°F

Minsk temperature yesterday

Maximum temperature yesterday: 72 °F (at 4:00 PM)
Minimum temperature yesterday: 57 °F (at 7:30 AM)
Average temperature yesterday: 66 °F

Past Weeks' High & Low Weather Summary

 TemperatureHumidityPressure
High82 °F (Jul 26, 12:00 PM)100% (Jul 23, 4:00 PM)30.07 "Hg (Jul 23, 4:00 PM)
Low52 °F (Jul 18, 6:00 AM)34% (Jul 18, 5:00 PM)29.53 "Hg (Jul 20, 7:30 AM)
Average67 °F64%29.86 "Hg
* Reported Jul 15 4:00 PM — Jul 30 4:00 PM, Minsk, Weather by CustomWeather, © 2015

Note: Actual official high and low records may vary slightly from our data, if they occured in-between our weather recording intervals... More about our weather records

Advertising

Minsk weather history for previous 24 hours

 ConditionsComfort  
Time TempWeatherWind HumidityBarometerVisibility
4:00 PM
Thu, Jul 30
70 °FPartly sunny.10 mph40%29.77 "HgN/A
3:30 PM72 °FPartly sunny.10 mph47%29.77 "HgN/A
3:00 PM72 °FPartly sunny.10 mph47%29.77 "HgN/A
2:30 PM70 °FPartly sunny.10 mph57%29.77 "HgN/A
2:00 PM70 °FPartly sunny.10 mph57%29.74 "HgN/A
1:30 PM68 °FPartly sunny.10 mph56%29.74 "HgN/A
1:00 PM68 °FPartly sunny.8 mph56%29.74 "HgN/A
12:30 PM66 °FPartly sunny.10 mph73%29.74 "HgN/A
12:00 PM66 °FPartly sunny.8 mph73%29.74 "HgN/A
11:30 AM61 °FPartly sunny.6 mph88%29.74 "HgN/A
11:00 AM61 °FPartly sunny.6 mph88%29.74 "HgN/A
10:30 AM61 °FPartly sunny.6 mph83%29.74 "HgN/A
10:00 AM61 °FSprinkles. Partly sunny.6 mph83%29.74 "Hg4 mi
9:30 AM63 °FSprinkles. Mostly cloudy.8 mph83%29.71 "Hg3 mi
9:00 AM63 °FPartly sunny.8 mph83%29.71 "HgN/A
8:30 AM59 °FPartly sunny.6 mph82%29.74 "HgN/A
8:00 AM59 °FMostly cloudy.6 mph82%29.74 "HgN/A
7:30 AM57 °FMostly cloudy.1 mph94%29.74 "HgN/A
9:00 PM
Wed, Jul 29
64 °FBroken clouds.3 mph68%29.74 "HgN/A
8:30 PM66 °FPartly sunny.3 mph64%29.74 "HgN/A
8:00 PM66 °FPartly sunny.6 mph64%29.74 "HgN/A
7:30 PM64 °FPartly sunny.6 mph78%29.74 "HgN/A
7:00 PM64 °FPartly sunny.10 mph78%29.74 "HgN/A
6:30 PM68 °FSprinkles. Partly sunny.10 mph53%29.74 "Hg4 mi
6:00 PM68 °FPartly sunny.13 mph53%29.74 "HgN/A
5:30 PM72 °FPartly sunny.10 mph44%29.74 "HgN/A
5:00 PM72 °FPartly sunny.13 mph44%29.74 "HgN/A
Weather by CustomWeather, © 2015

See weather overviewHow to use our weather pages